Showing default

CORVUS BC2, 42846

Orbit data source: Space-Track

CORVUS BC2, 42846 is a payload satellite owned by Astro Digital (US) in SSO that was launched on Fri, 14 Jul 2017 UTC via a SOYUZ-2-1A launch vehicle from the Tyuratam Missile And Space Complex (TTMTR). Payload-class satellites include a variety of spacecraft equipped with specific instruments for various scientific and technological missions. These include communications satellites like Starlink; space stations such as the ISS; scientific satellites like the Hubble; Earth observation satellites from companies like Planet Labs, Umbra, and HawkEye 360; GPS; miniature CubeSats for education and research; and military/defense satellites.

Loading next visibility...
Identifier
42846, 2017-042X
Orbit
SSO
Country
Flag of USUS
Related business
Manufacturer
Astro Digital
Mission
Operational Commercial Imaging
Bus & Motor
CUBESAT 6U, Unknown motor
Mass
10 kg wet, 10 kg dry
Launch date (UTC)
2017-07-14 (9 years ago)
Launch vehicle
SOYUZ-2-1A
Launch site
Tyuratam Missile And Space Complex (TTMTR)
Object type
Payload
Rocket body
Debris
Shape & HBR
Box + 2 Pan, 0.2 m
Radar Cross Section
0.092 m², Small (<0.1 m²)

Expand to show TLE details & history
Last TLE update: 1 day ago

TLE from 1 day ago
0 CORVUS BC2
1 42846U 17042X   26012.42448643  .00003151  00000-0  22581-3 0  9995
2 42846  97.3853 180.1189 0012439 286.9223  73.0640 15.05014114463623
Epoch: 2026-01-12T10:11Z
TLE epoch observation values (Epoch: 2026-01-12T10:11:15.627Z)
Latitude
-0.00004°
Longitude
-84.61758°
Altitude
552.031 km
Speed
7.587 km/s
True Right ascension
12h 00m 28s
True Declination
0° 00' 00"
Sunlit
Object was in daylight at epoch
Visualization orbit readout
Latitude
Unknown
Longitude
Unknown
Altitude
Unknown
Speed
Unknown
Apparent Right ascension
Unknown
Apparent Declination
Unknown
Sunlit
N/A
Visualization observer readout
Local Sidereal Time
16:41:39
Azimuth
Unknown
Elevation
Unknown
Doppler factor
Unknown
Orbital elements
Apogee altitude
557.063 km
Perigee altitude
539.831 km
Semi-major axis
6,926.584 km
Eccentricity
0.00124
Inclination
97.3853°
RAAN
180.1189°
Arg. of periapsis
286.9223°
True anomaly
73.20042°
Mean anomaly
73.064°
Eccentric anomaly
73.1322°
Mean motion
3.765 °/min
Orbital period
95.62 mins
BSTAR
0.00022581
Loading maneuver chart data...
Computing Atmospheric mass density...

Documentation

Showing up to 5 results
|